Weather in Kommunistichesky

Russia / Khanty-Mansi Autonomous Okrug — Yugra     61°40′41″N   64°28′29″E
temp.,
°C
wind,
m/s
gust,
m/s
humid.,
%
clouds,
%
prec.,
mm/h
press.,
hPa
HPBL,
m
6 may, thu
thu623:00+11nnw3894100 0.1 992272
02:00+8wnw4797100 2.7 990426
05:00+4wnw61492100 11.6 989608
08:00+2w51495100 2.1 992690
11:00+5w6138594 2.3 9941089
14:00+9w7126043 0.2 9951733
17:00+9w815555 0.4 9981845
20:00+5w7146266 0.1 10011648
7 may, fri
fri723:00+2w7146785 0.1 10031267
02:00+2w715685 0.0 10041043
05:00+1w715665 0.0 1006968
08:00+4wnw714575 0.0 10081029
11:00+9wnw712401 0.0 10101313
14:00+13wnw713416 0.0 10101553
17:00+13wnw5125428 0.0 10111333
20:00+12wnw38655 0.0 1012276
8 may, sat
sat823:00+8wnw22885 0.0 101320
02:00+7w119356 0.0 101410
05:00+7sw229390 0.0 101517
08:00+13sw246659 0.0 1015279
11:00+17wsw484716 0.1 10151594
14:00+15wnw575994 0.1 10161030
17:00+16nw46405 0.1 10171509
20:00+13nnw26476 0.0 1019144
9 may, sun
sun923:00+8ne11622 0.0 102110
02:00+7e11670 0.0 102210
05:00+6se11740 0.0 102310
08:00+12sse23510 0.0 1024318
11:00+16se22353 0.0 10231443
14:00+18sse232899 0.0 10221820
17:00+19sse23250 0.0 10211846
20:00+15s22390 0.0 102223
10 may, mon
mon1023:00+11sse34470 0.0 102252
02:00+9sse39580 0.0 1022149
05:00+8s39630 0.0 1022152
08:00+15ssw484346 0.0 1022364
11:00+19ssw4636100 0.0 10211749
14:00+21ssw5832100 0.0 10192277
17:00+22ssw582938 0.0 10172710
20:00+13nw5867100 0.0 1018589